Regional Weather Roundup
Issued by NWS

Home | Current Version | Previous Version | Text Only | Print | Product List | Glossary On
Versions: 1 2 3 4 5 6 7 8 9 10 11 12 13 14 15 16 17 18 19 20 21 22 23 24 25 26 27 28 29 30 31 32 33 34 35 36 37 38 39 40 41 42 43 44 45 46 47 48 49 50
000
ASUS43 KMPX 041010
RWRMN
WEATHER ROUNDUP FOR MINNESOTA
NATIONAL WEATHER SERVICE TWIN CITIES/CHANHASSEN MN
500 AM CDT FRI SEP 04 2015


NOTE: "FAIR" INDICATES FEW OR NO CLOUDS BELOW 12,000 FEET WITH NO
SIGNIFICANT WEATHER AND/OR OBSTRUCTIONS TO VISIBILITY. N/A MEANS
CURRENT SKY AND/OR WEATHER CONDITIONS ARE NOT AVAILABLE.

MNZ060>063-068>070-041100-
   Twin Cities Metro

CITY           SKY/WX    TMP DP  RH WIND       PRES   REMARKS
TWIN CITIES    PTCLDY    71  68  90 SE10      29.92R
ST PAUL        CLEAR     71  67  87 SE10      29.92S
CRYSTAL        CLEAR     73  68  84 SE10      29.90R
BLAINE         CLEAR     72  70  94 SE8       29.92R
LAKEVILLE      CLEAR     66  66 100 CALM      29.92S FOG
EDEN PRAIRIE   CLEAR     72  69  90 E8        29.90R
SOUTH ST PAUL  CLEAR     71  67  89 SE3       29.92S
LAKE ELMO      FAIR      70  64  83 E5        29.94S
$$
MNZ001>005-007-008-013>017-022>024-027-028-041100-
   Northwest Minnesota

CITY           SKY/WX    TMP DP  RH WIND       PRES   REMARKS
BEMIDJI        CLOUDY    66  63  89 E8        29.90R
HALLOCK        PTCLDY    73  70  88 SE8       29.79R
ROSEAU         MOCLDY    70  64  83 S7        29.85S
WARROAD        MOCLDY    70  64  83 SE8       29.86S
THIEF RVR FALL CLEAR     70  68  94 SE7       29.84R
CROOKSTON      CLEAR     73  70  88 SE9       29.81S
FOSSTON        CLEAR     70  66  88 SE9       29.85S
DETROIT LAKES  CLOUDY    72  68  88 SE13G21   29.85S
MOORHEAD       CLEAR     73  72  94 SE8       29.79R
PARK RAPIDS    CLOUDY    68  64  87 E7        29.89S
MAHNOMEN       FAIR      72  69  90 SE8       29.84R
$$
MNZ006-009>011-018-025>026-041100-
   North Central Minnesota

CITY           SKY/WX    TMP DP  RH WIND       PRES   REMARKS
BAUDETTE       MOCLDY    64  59  83 SE10      29.90R
FLAG ISLAND    MOCLDY    68  63  83 SE13      29.87S
INTL FALLS     PTCLDY    56  53  90 SE7       29.94S
WASKISH        MOCLDY    64  61  88 CALM      29.90S
BIG FORK       PTCLDY    64  59  82 SE7       29.94S
LONGVILLE      MOCLDY    64  63  94 E3        29.92S
GRAND RAPIDS     N/A     61  55  82 SE8       29.95F
CRANE LAKE     PTCLDY    50  50 100 CALM      29.99S
ORR            PTCLDY    59  54  82 CALM      29.95S
COOK           PTCLDY    55  55 100 E3        29.98S
WALKER         CLOUDY    65  62  89 E6        29.91S
$$
MNZ012-019>021-037-041100-
   Northeast Minnesota

CITY           SKY/WX    TMP DP  RH WIND       PRES   REMARKS
DULUTH         MOCLDY    58  56  93 E8        29.99F
ELY            CLEAR     48  48 100 CALM      30.02R
HIBBING        CLOUDY    58  56  93 SE3       29.98S
EVELETH        CLEAR     54  54 100 CALM      30.00S
DULUTH HARBOR  PTCLDY    59  57  94 NE9       30.00S
TWO HARBORS    CLEAR     57  54  88 NE5       30.00R
SILVER BAY     CLEAR     57  55  94 NE3       30.01S
GRAND MARAIS     N/A     58  55  90 NE3       30.03S
G MARAIS ARPRT CLEAR     59  55  88 E3        30.07S
$$
MNZ029>031-032-039>041-046>048-054>057-064-041100-
   West Central Minnesota

CITY           SKY/WX    TMP DP  RH WIND       PRES   REMARKS
FERGUS FALLS   CLEAR     73  73 100 SE12      29.79F
WHEATON        CLEAR     72  70  94 E12       29.79S
MORRIS         CLEAR     73  73 100 SE12      29.81S FOG
ALEXANDRIA     CLOUDY    72  71  97 SE14      29.87S FOG
ELBOW LAKE     FAIR      73  72  96 SE9       29.81S
WADENA         CLOUDY    70  68  94 SE9       29.87S
GLENWOOD       CLOUDY    72  72 100 SE10      29.87S FOG
APPLETON       CLEAR     75  72  88 SE10      29.79S
BENSON         PTCLDY    73  70  88 SE8       29.83R
ORTONVILLE     CLEAR     73  72  94 SE9       29.78S
MADISON        CLEAR     73  72  94 SE7       29.79S
WILLMAR        FAIR      73  73 100 SE9       29.86S
$$
MNZ033>034-036-042>043-049>051-058-059-041100-
   Central Minnesota

CITY           SKY/WX    TMP DP  RH WIND       PRES   REMARKS
ST CLOUD       PTCLDY    69  68  96 E6        29.89S
SAUK CENTRE    CLOUDY    71  70  97 SE8       29.88S
PAYNESVILLE    CLOUDY    73  72  98 E9        29.88S
AITKIN         PTCLDY    64  57  77 E3        29.92S
PINE RIVER     PTCLDY    64  64 100 SE8       29.95S
BRAINERD       PTCLDY    67  65  93 SE7       29.91S
STAPLES        CLOUDY    70  66  88 SE5       29.89S
LONG PRAIRIE   CLOUDY    70  68  94 E6        29.89S
LITTLE FALLS   MOCLDY    68  64  88 E6        29.89F
LITCHFIELD     PTCLDY    73  73 100 SE7       29.88S FOG
BUFFALO        CLEAR     70  67  90 E7        29.90S
MAPLE LAKE     PTCLDY    72  70  95 E7        29.90S
$$
MNZ037-044-045-052-053-041100-
   East Central Minnesota

CITY           SKY/WX    TMP DP  RH WIND       PRES   REMARKS
PRINCETON      CLEAR     70  66  88 E6        29.92R
MORA           CLEAR     64  64 100 CALM      29.95S
CAMBRIDGE      CLEAR     72  61  68 SE5       29.91S
RUSH CITY      PTCLDY    67  64  90 SE5       29.94S
MOOSE LAKE     CLOUDY    59  55  88 NE3       29.96R
HINCKLEY       FAIR      66  64  94 E5        29.95S
CLOQUET        MOCLDY    57  55  94 E3        29.98S
MCGREGOR       MOCLDY    63  61  94 E8        29.95S
$$
MNZ071>073-080-081-089-090-097-098-041100-
   Southwest Minnesota

CITY           SKY/WX    TMP DP  RH WIND       PRES   REMARKS
MONTEVIDEO     PTCLDY    73  73 100 S8        29.83S
GRANITE FALLS  PTCLDY    73  72  95 SE6       29.84S
CANBY          CLEAR     71  69  95 SE6       29.80F
MARSHALL       CLEAR     72  66  83 S10       29.83S
REDWOOD FALLS  PTCLDY    73  71  93 SE8       29.84S
OLIVIA         PTCLDY    72  70  94 SE9       29.85S
PIPESTONE      CLEAR     72 N/A N/A S9        29.84S
WINDOM         PTCLDY    72  70  94 SE8       29.87S
WORTHINGTON    CLEAR     72  64  78 S9        29.87S
JACKSON        PTCLDY    72  70  94 S9        29.89S
TRACY          CLEAR     74  71  89 S13       29.84S
SLAYTON        FAIR      69  69 100 CALM      29.87S
$$
MNZ065>067-074>077-082>085-091>093-041100-
   South Central Minnesota

CITY           SKY/WX    TMP DP  RH WIND       PRES   REMARKS
MANKATO        PTCLDY    73  70  88 SE8       29.89S
NEW ULM        PTCLDY    73  72  94 SE8       29.87S
ST JAMES       PTCLDY    73  72  94 SE7       29.88S
FAIRMONT       PTCLDY    72  55  56 S8        29.88F
GLENCOE        PTCLDY    73  73  99 E8        29.88S FOG
FARIBAULT      CLEAR     73  72  94 SE7       29.92S
OWATONNA       CLEAR     73  70  88 SE8       29.93S
WASECA         CLEAR     72  70  94 SE6       29.92S
ALBERT LEA     CLEAR     73  72  94 S6        29.93S
$$
MNZ078>079-086>088-094>096-041100-
   Southeast Minnesota

CITY           SKY/WX    TMP DP  RH WIND       PRES   REMARKS
ROCHESTER      FOG       72  72 100 SE9       29.96S VSB 1/2
RED WING       CLEAR     72  66  83 SE10      29.93S
STANTON        CLEAR     72  69  89 SE3       29.91S
DODGE CENTER   CLEAR     72  70  94 SE5       29.95S FOG
WINONA         CLEAR     70  64  83 SE5       29.97S
AUSTIN         CLEAR     72  70  94 SE3       29.94S
PRESTON        CLOUDY    71  69  94 E8        29.98S FOG
$$
ABBREVIATIONS USED IN REMARKS
   TC - TEMPERATURES IN CELSIUS
  WCI - WIND CHILL INDEX
   HX - HEAT INDEX
  VSB - VISIBILITY
$$



USA.gov is the U.S. government's official web portal to all federal, state and local government web resources and services.